HST 1 20580U 90037B 25125.83823334 .00008371 00000-0 31902-3 0 9990 2 20580 28.4685 331.8770 0002222 349.9992 10.0557 15.24851170726212 ISS (ZARYA) 1 25544U 98067A 25126.17586691 .00009140 00000-0 17165-3 0 9996 2 25544 51.6365 155.1559 0002438 84.5145 23.8654 15.49368941508644 CXO 1 25867U 99040B 25127.12296567 .00000591 00000-0 00000+0 0 9999 2 25867 48.6570 131.6032 8487592 308.9148 359.7795 0.37811089 26945